timestamp,wind_dir_avg,wind_spd_max_dir,wind_spd_avg,wind_spd_gust,battery_voltage,lat,long
2018-10-09 00:00:00+00:00,350.0,356.0,3.63,4.08,,47.59359,-54.27349
2018-10-09 00:10:00+00:00,356.0,355.0,4.05,4.36,,47.59359,-54.27349
2018-10-09 00:20:00+00:00,339.0,345.0,3.24,3.84,,47.59359,-54.27349
2018-10-09 00:30:00+00:00,332.0,333.0,3.39,3.96,,47.59359,-54.27349
2018-10-09 00:40:00+00:00,334.0,328.0,3.58,4.41,,47.59359,-54.27349
2018-10-09 00:50:00+00:00,344.0,344.0,5.51,6.11,,47.59359,-54.27349
2018-10-09 01:00:00+00:00,336.0,331.0,5.79,6.29,,47.59359,-54.27349
2018-10-09 01:10:00+00:00,340.0,334.0,6.01,6.63,,47.59359,-54.27349
2018-10-09 01:20:00+00:00,337.0,336.0,6.08,7.07,,47.59359,-54.27349
2018-10-09 01:30:00+00:00,341.0,341.0,6.82,7.73,,47.59359,-54.27349
2018-10-09 01:40:00+00:00,355.0,356.0,8.57,9.72,,47.59359,-54.27349
2018-10-09 01:50:00+00:00,349.0,355.0,7.0,8.31,,47.59359,-54.27349
2018-10-09 02:00:00+00:00,0.0,4.0,7.0,8.07,,47.59359,-54.27349
2018-10-09 02:10:00+00:00,353.0,343.0,6.33,7.94,,47.59359,-54.27349
2018-10-09 02:20:00+00:00,351.0,358.0,6.78,8.04,,47.59359,-54.27349
2018-10-09 02:30:00+00:00,341.0,341.0,7.21,8.71,,47.59359,-54.27349
2018-10-09 02:40:00+00:00,335.0,339.0,5.81,7.1,,47.59359,-54.27349
2018-10-09 02:50:00+00:00,347.0,345.0,5.32,6.17,,47.59359,-54.27349
2018-10-09 03:00:00+00:00,343.0,339.0,4.81,5.55,,47.59359,-54.27349
2018-10-09 03:10:00+00:00,337.0,348.0,6.7,7.53,,47.59359,-54.27349
2018-10-09 03:20:00+00:00,351.0,343.0,6.21,7.22,,47.59359,-54.27349
2018-10-09 03:30:00+00:00,336.0,335.0,6.09,7.46,,47.59359,-54.27349
2018-10-09 03:40:00+00:00,327.0,325.0,4.57,5.7,,47.59359,-54.27349
2018-10-09 03:50:00+00:00,329.0,333.0,4.53,5.96,,47.59359,-54.27349
2018-10-09 04:00:00+00:00,322.0,323.0,5.18,6.18,,47.59359,-54.27349
2018-10-09 04:10:00+00:00,325.0,327.0,5.96,7.08,,47.59359,-54.27349
2018-10-09 04:20:00+00:00,330.0,332.0,8.1,8.96,,47.59359,-54.27349
2018-10-09 04:30:00+00:00,337.0,338.0,7.39,8.46,,47.59359,-54.27349
2018-10-09 04:40:00+00:00,337.0,333.0,7.15,7.91,,47.59359,-54.27349
2018-10-09 04:50:00+00:00,326.0,325.0,7.56,8.94,,47.59359,-54.27349
2018-10-09 05:00:00+00:00,333.0,339.0,7.9,9.24,,47.59359,-54.27349
2018-10-09 05:10:00+00:00,326.0,331.0,7.3,8.28,,47.59359,-54.27349
2018-10-09 05:20:00+00:00,323.0,327.0,8.09,9.52,,47.59359,-54.27349
2018-10-09 05:30:00+00:00,330.0,343.0,7.47,9.32,,47.59359,-54.27349
2018-10-09 05:40:00+00:00,328.0,331.0,7.67,8.53,,47.59359,-54.27349
2018-10-09 05:50:00+00:00,338.0,352.0,8.07,9.49,,47.59359,-54.27349
2018-10-09 06:00:00+00:00,335.0,335.0,7.62,8.54,,47.59359,-54.27349
2018-10-09 06:10:00+00:00,341.0,344.0,8.18,9.12,,47.59359,-54.27349
2018-10-09 06:20:00+00:00,337.0,334.0,8.2,9.35,,47.59359,-54.27349
2018-10-09 06:30:00+00:00,330.0,330.0,7.45,8.81,,47.59359,-54.27349
2018-10-09 06:40:00+00:00,331.0,332.0,7.61,8.78,,47.59359,-54.27349
2018-10-09 06:50:00+00:00,330.0,324.0,7.27,8.65,,47.59359,-54.27349
2018-10-09 07:00:00+00:00,324.0,322.0,6.96,8.39,,47.59359,-54.27349
2018-10-09 07:10:00+00:00,328.0,335.0,7.05,8.22,,47.59359,-54.27349
2018-10-09 07:20:00+00:00,318.0,316.0,6.87,9.01,,47.59359,-54.27349
2018-10-09 07:30:00+00:00,321.0,327.0,7.94,8.81,,47.59359,-54.27349
2018-10-09 07:40:00+00:00,323.0,327.0,7.97,8.86,,47.59359,-54.27349
2018-10-09 07:50:00+00:00,315.0,310.0,7.07,8.82,,47.59359,-54.27349
2018-10-09 08:00:00+00:00,323.0,321.0,7.55,8.81,,47.59359,-54.27349
2018-10-09 08:10:00+00:00,320.0,323.0,7.35,8.55,,47.59359,-54.27349
2018-10-09 08:20:00+00:00,318.0,313.0,7.61,8.89,,47.59359,-54.27349
2018-10-09 08:30:00+00:00,322.0,325.0,7.11,7.97,,47.59359,-54.27349
2018-10-09 08:40:00+00:00,318.0,320.0,6.86,7.59,,47.59359,-54.27349
2018-10-09 08:50:00+00:00,320.0,322.0,6.9,7.82,,47.59359,-54.27349
2018-10-09 09:00:00+00:00,329.0,328.0,7.33,9.14,,47.59359,-54.27349
2018-10-09 09:10:00+00:00,329.0,333.0,7.07,8.49,,47.59359,-54.27349
2018-10-09 09:20:00+00:00,330.0,334.0,7.33,8.89,,47.59359,-54.27349
2018-10-09 09:30:00+00:00,334.0,336.0,6.81,8.17,,47.59359,-54.27349
2018-10-09 09:40:00+00:00,327.0,324.0,6.43,7.17,,47.59359,-54.27349
2018-10-09 09:50:00+00:00,326.0,315.0,6.69,7.46,,47.59359,-54.27349
2018-10-09 10:00:00+00:00,320.0,318.0,6.6,7.83,,47.59359,-54.27349
2018-10-09 10:10:00+00:00,325.0,321.0,6.79,7.96,,47.59359,-54.27349
2018-10-09 10:20:00+00:00,318.0,316.0,6.12,7.05,,47.59359,-54.27349
2018-10-09 10:30:00+00:00,317.0,315.0,6.85,7.75,,47.59359,-54.27349
2018-10-09 10:40:00+00:00,325.0,320.0,6.34,7.09,,47.59359,-54.27349
2018-10-09 10:50:00+00:00,330.0,332.0,5.74,6.43,,47.59359,-54.27349
2018-10-09 11:00:00+00:00,327.0,325.0,5.17,6.04,,47.59359,-54.27349
2018-10-09 11:10:00+00:00,313.0,311.0,5.74,6.95,,47.59359,-54.27349
2018-10-09 11:20:00+00:00,304.0,304.0,4.41,5.2,,47.59359,-54.27349
2018-10-09 11:30:00+00:00,306.0,297.0,3.91,4.74,,47.59359,-54.27349
2018-10-09 11:40:00+00:00,312.0,320.0,4.08,4.9,,47.59359,-54.27349
2018-10-09 11:50:00+00:00,308.0,321.0,4.87,5.58,,47.59359,-54.27349
2018-10-09 12:00:00+00:00,320.0,321.0,4.43,5.14,,47.59359,-54.27349
2018-10-09 12:10:00+00:00,308.0,312.0,4.66,5.79,,47.59359,-54.27349
2018-10-09 12:20:00+00:00,301.0,298.0,5.19,6.26,,47.59359,-54.27349
2018-10-09 12:30:00+00:00,300.0,305.0,3.94,5.17,,47.59359,-54.27349
2018-10-09 12:40:00+00:00,302.0,300.0,3.58,4.31,,47.59359,-54.27349
2018-10-09 12:50:00+00:00,309.0,313.0,4.49,5.17,,47.59359,-54.27349
2018-10-09 13:00:00+00:00,309.0,316.0,4.08,4.91,,47.59359,-54.27349
2018-10-09 13:10:00+00:00,303.0,307.0,3.38,4.42,,47.59359,-54.27349
2018-10-09 13:20:00+00:00,286.0,290.0,3.49,3.98,,47.59359,-54.27349
2018-10-09 13:30:00+00:00,277.0,277.0,4.23,5.13,,47.59359,-54.27349
2018-10-09 13:40:00+00:00,262.0,256.0,3.71,4.4,,47.59359,-54.27349
2018-10-09 13:50:00+00:00,264.0,264.0,2.53,2.89,,47.59359,-54.27349
2018-10-09 14:00:00+00:00,252.0,246.0,3.28,3.8,,47.59359,-54.27349
2018-10-09 14:10:00+00:00,240.0,234.0,4.16,4.72,,47.59359,-54.27349
2018-10-09 14:20:00+00:00,236.0,236.0,3.47,4.13,,47.59359,-54.27349
2018-10-09 14:30:00+00:00,238.0,241.0,4.14,4.73,,47.59359,-54.27349
2018-10-09 14:40:00+00:00,240.0,250.0,3.59,4.29,,47.59359,-54.27349
2018-10-09 14:50:00+00:00,265.0,267.0,3.82,5.02,,47.59359,-54.27349
2018-10-09 15:00:00+00:00,235.0,235.0,3.51,4.31,,47.59359,-54.27349
2018-10-09 15:10:00+00:00,266.0,262.0,3.87,4.45,,47.59359,-54.27349
2018-10-09 15:20:00+00:00,262.0,259.0,5.1,6.42,,47.59359,-54.27349
2018-10-09 15:30:00+00:00,275.0,277.0,4.37,5.05,,47.59359,-54.27349
2018-10-09 15:40:00+00:00,273.0,271.0,4.07,4.74,,47.59359,-54.27349
2018-10-09 15:50:00+00:00,258.0,255.0,4.06,5.02,,47.59359,-54.27349
2018-10-09 16:00:00+00:00,251.0,240.0,3.65,4.3,,47.59359,-54.27349
2018-10-09 16:10:00+00:00,266.0,265.0,5.71,6.5,,47.59359,-54.27349
2018-10-09 16:20:00+00:00,291.0,291.0,6.61,7.81,,47.59359,-54.27349
2018-10-09 16:30:00+00:00,281.0,280.0,7.61,9.58,,47.59359,-54.27349
2018-10-09 16:40:00+00:00,260.0,253.0,5.83,7.3,,47.59359,-54.27349
2018-10-09 16:50:00+00:00,252.0,256.0,6.6,7.94,,47.59359,-54.27349
2018-10-09 17:00:00+00:00,239.0,235.0,5.92,7.23,,47.59359,-54.27349
2018-10-09 17:10:00+00:00,257.0,255.0,6.34,7.27,,47.59359,-54.27349
2018-10-09 17:20:00+00:00,262.0,261.0,5.5,5.94,,47.59359,-54.27349
2018-10-09 17:30:00+00:00,258.0,262.0,5.67,6.37,,47.59359,-54.27349
2018-10-09 17:40:00+00:00,255.0,261.0,5.74,6.51,,47.59359,-54.27349
2018-10-09 17:50:00+00:00,252.0,256.0,7.09,7.88,,47.59359,-54.27349
2018-10-09 18:00:00+00:00,262.0,259.0,7.15,8.03,,47.59359,-54.27349
2018-10-09 18:10:00+00:00,250.0,250.0,5.92,6.96,,47.59359,-54.27349
2018-10-09 18:20:00+00:00,250.0,251.0,6.44,7.51,,47.59359,-54.27349
2018-10-09 18:30:00+00:00,244.0,246.0,5.3,6.37,,47.59359,-54.27349
2018-10-09 18:40:00+00:00,240.0,245.0,4.92,5.62,,47.59359,-54.27349
2018-10-09 18:50:00+00:00,239.0,237.0,4.57,5.37,,47.59359,-54.27349
2018-10-09 19:00:00+00:00,248.0,251.0,3.81,4.58,,47.59359,-54.27349
2018-10-09 19:10:00+00:00,237.0,233.0,3.19,3.67,,47.59359,-54.27349
2018-10-09 19:20:00+00:00,246.0,250.0,3.39,4.29,,47.59359,-54.27349
2018-10-09 19:30:00+00:00,269.0,267.0,6.31,7.21,,47.59359,-54.27349
2018-10-09 19:40:00+00:00,275.0,271.0,5.66,6.63,,47.59359,-54.27349
2018-10-09 19:50:00+00:00,269.0,269.0,7.08,8.12,,47.59359,-54.27349
2018-10-09 20:00:00+00:00,275.0,271.0,5.76,6.55,,47.59359,-54.27349
2018-10-09 20:10:00+00:00,254.0,258.0,4.34,4.75,,47.59359,-54.27349
2018-10-09 20:20:00+00:00,235.0,232.0,3.2,3.61,,47.59359,-54.27349
2018-10-09 20:30:00+00:00,235.0,231.0,2.51,2.92,,47.59359,-54.27349
2018-10-09 20:40:00+00:00,237.0,245.0,3.01,3.78,,47.59359,-54.27349
2018-10-09 20:50:00+00:00,234.0,234.0,3.65,4.16,,47.59359,-54.27349
2018-10-09 21:00:00+00:00,226.0,229.0,3.91,4.42,,47.59359,-54.27349
2018-10-09 21:10:00+00:00,230.0,231.0,4.29,5.04,,47.59359,-54.27349
2018-10-09 21:20:00+00:00,225.0,230.0,4.67,5.27,,47.59359,-54.27349
2018-10-09 21:30:00+00:00,229.0,234.0,5.27,6.72,,47.59359,-54.27349
2018-10-09 21:40:00+00:00,231.0,235.0,5.05,5.6,,47.59359,-54.27349
2018-10-09 21:50:00+00:00,247.0,246.0,4.99,5.69,,47.59359,-54.27349
2018-10-09 22:00:00+00:00,242.0,242.0,4.97,5.82,,47.59359,-54.27349
2018-10-09 22:10:00+00:00,242.0,241.0,4.15,4.56,,47.59359,-54.27349
2018-10-09 22:20:00+00:00,244.0,248.0,4.36,4.92,,47.59359,-54.27349
2018-10-09 22:30:00+00:00,235.0,228.0,4.83,5.55,,47.59359,-54.27349
2018-10-09 22:40:00+00:00,231.0,240.0,5.28,6.57,,47.59359,-54.27349
2018-10-09 22:50:00+00:00,229.0,231.0,5.41,6.04,,47.59359,-54.27349
2018-10-09 23:00:00+00:00,225.0,228.0,5.78,6.44,,47.59359,-54.27349
2018-10-09 23:10:00+00:00,218.0,225.0,4.39,5.46,,47.59359,-54.27349
2018-10-09 23:20:00+00:00,215.0,216.0,4.4,4.99,,47.59359,-54.27349
2018-10-09 23:30:00+00:00,213.0,214.0,4.88,5.51,,47.59359,-54.27349
2018-10-09 23:40:00+00:00,205.0,209.0,4.21,4.91,,47.59359,-54.27349
2018-10-09 23:50:00+00:00,200.0,196.0,3.84,4.38,,47.59359,-54.27349
